Flight Track Log - Related Links

Times and Time Zones

All times are in EST time to prevent confusion due to time zone crossing. See the KAP46 flight status page for this flight to view local times or setup timezone preferences in your user account.

Time Position Orientation Groundspeed Altitude Reporting Facility
EST Latitude Longitude Course Direction KTS MPH feet Rate Location/Type
07:16PM 42.7614 -73.8067 360° North 122 140 1,000  Level Boston Center
07:17PM 42.7700 -73.8067 360° North 115 132 1,300 943 Climbing Boston Center
07:18PM 42.7953 -73.8281 328° Northwest 113 130 2,100 885 Climbing Boston Center
07:18PM 42.7972 -73.8333 297° West 115 132 2,200 689 Climbing Boston Center
07:19PM 42.8186 -73.8558 322° Northwest 114 131 2,800 689 Climbing Boston Center
07:19PM 42.8244 -73.8600 332° Northwest 117 135 2,900 667 Climbing Boston Center
07:20PM 42.8508 -73.8806 330° Northwest 124 143 3,500 678 Climbing Boston Center
07:21PM 42.8808 -73.9061 328° Northwest 128 147 4,200 645 Climbing Boston Center
07:22PM 42.9128 -73.9331 328° Northwest 135 155 4,800 639 Climbing Boston Center
07:23PM 42.9467 -73.9608 329° Northwest 132 152 5,500 639 Climbing Boston Center
07:24PM 42.9761 -73.9856 328° Northwest 126 145 6,100 581 Climbing Boston Center
07:25PM 43.0061 -74.0111 328° Northwest 127 146 6,700 581 Climbing Boston Center
07:26PM 43.0353 -74.0358 328° Northwest 124 143 7,300 645 Climbing Boston Center
07:27PM 43.0669 -74.0625 328° Northwest 124 143 8,000 228 Climbing Boston Center
07:29PM 43.1375 -74.1219 328° Northwest 156 180 8,000 -33 Level Boston Center
07:30PM 43.1750 -74.1533 329° Northwest 159 183 7,900 -50 Descending Boston Center
07:31PM 43.2164 -74.1858 330° Northwest 158 182 7,900  Level Boston Center
07:32PM 43.2547 -74.2175 329° Northwest 160 184 7,900  Level Boston Center
07:33PM 43.2922 -74.2503 328° Northwest 159 183 7,900  Level Boston Center
07:34PM 43.3333 -74.2856 328° Northwest 162 186 7,900  Level Boston Center
07:35PM 43.3711 -74.3183 328° Northwest 161 185 7,900 49 Level Boston Center
07:36PM 43.4053 -74.3478 328° Northwest 159 183 8,000 49 Climbing Boston Center
07:37PM 43.4425 -74.3792 329° Northwest 158 182 8,000  Level Boston Center
07:38PM 43.4806 -74.4117 328° Northwest 159 183 8,000  Level Boston Center
07:39PM 43.5186 -74.4439 328° Northwest 160 184 8,000  Level Boston Center
07:40PM 43.5647 -74.4822 329° Northwest 161 185 8,000  Level Boston Center
07:41PM 43.6028 -74.5153 328° Northwest 162 186 8,000  Level Boston Center
07:42PM 43.6414 -74.5478 329° Northwest 162 186 8,000  Level Boston Center
07:43PM 43.6783 -74.5806 327° Northwest 161 185 8,000  Level Boston Center
07:44PM 43.7161 -74.6128 328° Northwest 160 184 8,000  Level Boston Center
07:45PM 43.7528 -74.6447 328° Northwest 158 182 8,000  Level Boston Center
07:46PM 43.7894 -74.6769 328° Northwest 158 182 8,000  Level Boston Center
07:47PM 43.8292 -74.7036 334° Northwest 160 184 8,000  Level Boston Center
07:48PM 43.8803 -74.7256 343° North 162 186 8,000  Level Boston Center
07:49PM 43.9228 -74.7467 340° North 162 186 8,000  Level Boston Center
07:50PM 43.9642 -74.7686 339° North 161 185 8,000  Level Boston Center
07:51PM 44.0058 -74.7906 339° North 160 184 8,000  Level Boston Center
07:52PM 44.0481 -74.8131 339° North 162 186 8,000  Level Boston Center
07:53PM 44.0886 -74.8344 339° North 159 183 8,000  Level Boston Center
07:54PM 44.1308 -74.8567 339° North 161 185 8,000  Level Boston Center
07:55PM 44.1725 -74.8781 340° North 159 183 8,000  Level Boston Center
07:56PM 44.2131 -74.8989 340° North 157 181 8,000  Level Boston Center
07:57PM 44.2542 -74.9208 339° North 158 182 8,000 -146 Level Boston Center
07:58PM 44.3053 -74.9483 339° North 162 186 7,700 -387 Descending Boston Center
07:59PM 44.3497 -74.9706 340° North 167 192 7,200 -443 Descending Boston Center
08:00PM 44.3956 -74.9933 340° North 173 199 6,800 -492 Descending Boston Center
08:02PM 44.4431 -75.0183 339° North 180 207 6,200 -634 Descending Boston Center
08:03PM 44.4878 -75.0400 341° North 176 203 5,500 -645 Descending Boston Center
08:04PM 44.5328 -75.0653 338° Northwest 174 200 4,900 -595 Descending Boston Center
08:05PM 44.5792 -75.0856 343° North 175 201 4,300 -541 Descending Boston Center
08:06PM 44.6242 -75.1097 339° North 174 200 3,800 -435 Descending Boston Center
08:07PM 44.6683 -75.1367 337° Northwest 174 200 3,400 -381 Descending Boston Center

Login

Don't have an account? Register now (free) for customized features, flight alerts, and more!